STARLINK-32591, 61718

Orbit data source: Space-Track

STARLINK-32591, 61718 is a payload satellite owned by SpaceX/Seattle (US) in LEO that was launched on Wed, 30 Oct 2024 UTC via an FALCON 9 launch vehicle from the Air Force Eastern Test Range (AFETR). Payloads include a variety of satellites, spacecraft, and rockets equipped with specific instruments for various scientific and technological missions. These include communications satellites like Starlink; space stations such as the ISS; scientific satellites like the Hubble; Earth observation satellites from companies like Planet Labs, Umbra, and HawkEye 360; GPS; miniature CubeSats for education and research; and military/defense satellites.

Loading next visibility...
STARLINK-32591 details
Identifier
61718, 2024-196M
Orbit
LEO
Last TLE update18 hours ago
Origin
Flag of USSpaceX/Seattle (US)
ManufacturerSpaceX/Seattle
MissionOperational spacecraft
Bus & MotorSTARLINK V2M, Unknown motor
Mass730 kg wet, ~700 kg dry
Launch date (UTC)
2024-10-30 (1 month ago)
Launch vehicle
FALCON 9
Launch site
Air Force Eastern Test Range (AFETR)
Object type
Payload
Rocket body
Debris
Shape & HBRUnknown
Radar Cross SectionLarge (>1 m²)

Expand to show TLE details & history

TLE from 18 hours ago
0 STARLINK-32591
1 61718U 24196M   24348.12995334  .00038626  00000-0  47758-3 0  9991
2 61718  53.1608  39.9865 0005263  48.9966 311.1502 15.59748958  8020
Epoch: 2024-12-13T03:07Z
Definitive object data (Epoch: 2024-12-13T03:07:07.968Z)
Latitude-0.00003°
Longitude-89.09708°
Altitude386.952 km
Speed7.68 km/s
True Right ascension02h 39m 56s
True Declination0° 00' 00"
Sunlit
Object was in full shadow at TLE epoch
Visualization TLE readout
Latitude-51.58408°
Longitude-162.71696°
Altitude408.308 km
Speed7.664 km/s
Apparent Right ascension03h 47m 45s
Apparent Declination-75° 24' 46"
Sunlit
Object is in daylight
Visualization observer readout
Local Sidereal Time19:46:07
Azimuth161.795° S
Elevation-45.952°
Doppler factor1
Orbital elements
Apogee altitude392.204 km
Perigee altitude385.081 km
Semi-major axis6,766.78 km
Eccentricity0.0005263
Inclination53.1608°
RAAN39.9865°
Arg. of periapsis48.9966°
True anomaly311.10477°
Mean anomaly311.1502°
Eccentric anomaly311.12749°
Mean motion3.89915 °/min
BSTAR0.00047758
Orbital period92.33 mins
Loading maneuver chart data...
Loading historical data...
Loading historical data...
Loading historical data...
Loading historical data...
Loading historical data...
Loading historical data...
Loading historical data...

STARLINK-32591 Visibility forecast

Observer location: undefined°, undefined

Span
Click to sort rows by Start time (UTC) header in descending order
Start Az.
Max El. time (UTC)
Max El. Az.
Max El.
End time (UTC)
End Az.
4 mins2024-12-14 05:25:25.511Z178.838° S2024-12-14 05:27:25.511Z131.409° SE20.883°2024-12-14 05:29:25.511Z83.703° E
|